Theta_e
297 297 296 296 296 295 295 295 294 294 293 292 292 292 291 291 291 291 290 290 289 289 289 289 289 288 287 286 285 285 284 284 284 283 283 282 282 282 282 282 282 282 281 280 280 279 279 279 279 278 278 277 277 276 276 275 275 275 275 275 275 275 275 275 275 276 276 276 276 276 276 276 276 276 276 276 276 276 276 276 276 276 276 276 276
297 297 296 296 296 295 295 295 294 293 293 292 292 292 291 291 290 290 290 290 289 289 289 288 288 287 287 286 285 284 284 284 284 283 283 282 282 281 281 281 281 281 280 280 280 279 279 278 278 278 277 277 276 276 275 275 274 274 274 274 274 274 274 275 275 275 275 275 275 276 276 276 276 276 276 276 276 276 277 277 277 277 276 276 276
297 297 296 296 295 295 295 294 294 293 293 292 292 292 291 291 290 290 290 289 289 289 288 288 288 287 286 286 285 284 284 284 284 283 283 282 282 281 281 281 281 281 280 280 279 279 278 278 278 278 277 276 276 275 275 274 274 274 274 274 274 274 274 274 274 274 274 275 275 275 275 276 276 276 276 276 276 277 277 277 277 277 277 277 277
297 296 296 296 295 295 294 294 293 293 292 292 292 291 291 290 290 289 289 289 288 288 288 287 287 286 286 285 284 284 284 283 283 282 282 282 281 281 281 281 280 280 280 280 279 279 278 277 277 277 276 275 275 274 274 274 274 274 274 274 274 274 274 274 274 274 274 274 275 275 276 276 276 276 277 277 277 277 277 277 277 277 277 277 277
297 296 296 295 295 294 294 293 293 293 293 292 292 291 290 290 289 289 288 288 288 288 287 287 286 286 285 285 284 284 283 283 282 282 281 281 281 281 281 280 280 280 280 279 279 278 278 277 276 276 275 275 274 274 274 274 274 273 273 273 274 274 274 274 274 274 274 275 275 276 276 276 277 277 277 277 277 277 277 277 277 277 277 277 277
297 296 295 295 294 294 293 293 293 293 293 292 292 291 290 289 289 288 288 287 287 287 287 286 286 285 285 284 284 283 283 282 282 282 281 281 280 280 280 280 280 280 279 279 278 277 277 276 276 275 275 274 274 274 273 273 273 273 273 274 274 274 274 274 275 275 275 275 276 276 276 276 277 277 277 277 277 277 277 278 277 278 278 277 277
296 296 295 294 294 294 293 293 293 293 293 292 291 290 290 289 288 288 287 287 286 286 286 286 286 285 284 284 283 283 282 282 281 281 281 280 280 280 280 279 279 279 278 278 277 277 276 276 275 275 275 274 274 274 274 274 274 274 274 274 274 275 275 275 275 276 276 276 276 276 277 277 277 277 277 277 277 277 278 278 278 278 278 278 278
296 295 295 294 294 294 293 294 293 292 292 291 290 290 289 288 288 287 286 286 286 286 286 286 285 284 284 284 283 283 282 281 281 281 280 280 280 280 279 279 279 278 277 277 277 276 276 275 276 276 275 274 274 274 274 274 274 274 275 275 276 276 276 276 276 276 276 276 276 277 277 277 277 277 278 278 278 278 278 278 278 278 278 278 278
296 295 294 294 294 294 293 293 292 292 291 290 290 289 288 288 287 286 286 285 285 285 285 285 284 284 283 282 282 282 281 281 281 281 280 280 279 279 279 279 278 277 277 276 276 275 275 276 276 276 275 275 275 275 275 275 275 276 276 277 277 277 276 276 277 277 277 277 277 277 277 277 278 278 278 278 278 278 278 278 278 278 278 278 278
295 294 294 294 294 294 293 292 292 291 290 290 289 288 288 287 286 285 285 284 284 284 284 284 284 283 282 282 281 281 281 281 281 281 280 280 280 279 279 278 277 277 276 275 275 275 275 276 276 275 275 275 276 276 277 277 277 278 278 278 278 277 277 277 277 277 278 278 278 278 278 278 278 278 278 278 278 278 278 278 278 278 278 278 278
295 294 294 294 294 293 292 292 291 290 290 289 288 287 287 286 285 284 284 283 283 284 283 283 283 282 282 281 281 281 281 281 281 280 280 280 280 279 278 278 277 276 276 275 275 275 275 276 276 275 276 276 276 277 277 277 277 277 277 278 278 278 278 278 278 278 278 278 278 278 278 278 278 278 278 278 278 278 278 278 278 278 278 278 278
294 294 294 294 293 292 292 291 290 289 289 288 287 287 286 285 284 283 283 283 283 283 283 282 282 282 281 281 281 280 281 281 280 279 279 279 279 278 278 277 276 276 276 276 275 275 275 276 276 276 276 276 276 276 276 276 276 276 276 277 277 277 277 278 278 278 278 278 278 278 278 278 278 278 278 278 278 278 278 278 278 278 278 278 278
294 294 293 293 292 292 291 290 289 289 288 287 286 285 284 284 283 283 283 282 282 282 282 282 281 281 281 280 280 280 280 280 279 278 278 278 277 277 277 277 276 276 276 276 275 276 276 276 276 276 276 275 275 275 275 275 275 275 275 276 276 276 277 277 277 278 278 278 278 278 278 278 277 277 277 277 277 278 278 278 278 278 278 278 278
293 293 293 292 292 291 290 289 288 288 287 286 285 284 284 283 283 282 282 281 281 281 281 281 280 280 280 279 279 279 279 279 278 278 278 278 277 277 277 277 277 276 276 276 276 276 276 276 276 275 275 274 274 274 274 274 274 275 275 275 276 276 276 277 277 277 277 277 277 277 277 277 277 277 277 277 277 278 278 278 278 278 278 278 278
293 292 292 291 291 290 289 288 287 286 286 285 284 283 283 282 282 281 281 281 281 280 280 280 280 279 278 278 278 277 278 278 277 278 279 279 279 278 277 277 277 276 276 276 276 276 276 275 275 274 274 274 274 274 274 275 275 275 276 276 276 276 276 276 276 276 276 277 277 277 277 277 277 277 277 277 277 278 278 278 278 277 277 277 277
292 292 291 291 290 289 289 288 286 285 284 284 283 282 282 281 281 281 280 280 280 280 279 279 279 278 277 277 276 276 276 277 278 278 279 279 280 279 278 277 277 276 276 276 276 276 275 274 274 274 274 274 274 275 275 276 276 276 276 276 276 276 276 276 276 277 277 277 277 276 276 276 276 277 277 277 277 277 277 276 275 275 275 275 276
291 291 290 290 290 289 288 287 286 285 284 283 282 282 281 281 281 280 280 279 279 278 278 278 277 277 276 276 276 275 276 277 278 278 279 279 279 279 278 277 277 276 276 276 275 274 274 273 273 273 274 274 274 275 276 276 276 276 276 276 276 276 276 276 276 276 276 276 275 275 276 276 276 276 275 275 275 274 274 274 273 274 274 274 275
291 291 290 290 289 288 288 287 285 284 283 282 282 282 281 281 280 279 279 279 278 278 277 277 277 276 276 276 276 276 276 277 278 278 278 279 279 278 277 277 276 276 276 275 274 273 273 273 274 274 274 274 275 275 276 276 276 276 276 276 276 277 276 276 275 275 274 274 274 275 275 275 274 272 272 272 272 272 273 273 273 273 274 274 274
290 290 290 289 289 287 287 286 285 284 283 282 282 281 281 280 279 279 279 278 278 277 277 276 276 275 276 276 275 276 277 277 278 278 278 279 278 277 277 276 276 275 274 274 273 273 273 274 274 275 275 275 275 276 276 276 276 276 276 276 276 276 275 274 274 274 274 274 274 274 273 271 270 270 270 270 271 271 272 272 272 272 273 274 275
289 289 289 288 288 286 286 285 285 284 283 282 282 281 280 280 279 278 278 277 277 276 276 276 275 275 275 275 275 275 276 277 277 278 278 279 278 277 276 276 275 274 274 273 273 273 274 274 275 275 275 275 275 275 276 276 276 276 276 276 276 275 274 274 274 274 274 273 272 271 270 269 269 269 269 270 270 271 271 272 272 272 273 274 275
288 288 288 287 287 285 285 285 284 284 283 282 281 280 280 279 278 277 277 276 276 275 275 275 274 274 274 274 274 275 276 276 277 277 278 279 278 277 276 275 274 274 273 273 273 274 274 275 274 274 274 275 275 275 275 276 276 276 276 275 274 274 274 274 274 274 272 271 269 269 268 268 269 269 269 270 270 271 271 272 272 272 273 273 274
287 288 288 287 286 285 284 284 283 283 282 281 280 279 279 278 277 277 276 276 275 275 274 274 274 273 273 273 273 274 275 275 276 277 278 278 279 277 275 275 274 273 273 273 274 274 275 274 274 273 273 274 274 275 275 275 275 275 274 274 274 274 274 274 273 271 269 268 268 268 268 268 269 269 269 270 270 271 271 272 272 272 272 272 272
287 287 287 286 285 284 283 283 282 282 281 280 279 279 277 277 276 276 276 275 274 274 273 273 273 272 272 272 272 273 273 273 274 276 277 278 279 277 276 274 274 273 273 273 274 275 274 273 272 272 273 273 274 275 275 274 274 273 273 273 273 273 273 271 269 268 267 267 267 267 268 268 269 269 270 270 270 271 271 271 271 272 272 272 272
288 287 286 284 283 282 282 282 281 281 280 279 279 278 277 276 276 275 275 274 274 273 273 272 272 272 271 271 271 271 272 272 273 275 277 278 278 278 276 275 275 274 274 274 275 274 273 272 272 272 273 274 274 273 273 273 272 271 272 272 272 271 270 268 267 267 267 267 267 268 268 268 269 269 270 270 270 270 271 271 271 272 272 272 272
287 286 285 284 283 282 281 281 281 280 279 279 278 277 276 275 275 274 274 274 273 273 272 272 271 271 271 270 270 270 271 271 272 274 276 277 278 278 277 276 276 276 275 275 274 273 273 272 272 273 273 273 272 271 271 271 270 270 270 270 270 269 267 267 266 266 266 267 267 268 268 268 269 269 269 270 270 270 271 271 271 271 271 271 271
287 286 285 284 283 282 281 280 280 279 278 278 278 277 275 275 274 274 273 273 273 273 272 271 271 271 271 270 270 270 270 271 272 274 275 277 277 277 277 277 277 276 275 274 274 273 273 273 273 272 271 270 270 269 269 270 270 270 269 269 268 267 266 266 266 266 267 267 268 268 268 268 269 269 269 269 270 270 271 271 271 271 271 271 271
286 286 285 284 282 281 280 279 279 278 277 277 277 276 275 274 274 273 273 273 273 273 272 271 271 271 271 271 270 270 270 271 272 273 274 275 276 276 276 276 276 275 274 273 273 272 272 271 271 270 270 269 269 269 269 269 269 269 269 268 267 266 266 266 266 266 267 267 267 267 268 268 268 269 269 269 270 271 271 271 271 271 271 271 271
286 286 285 283 282 281 280 279 278 277 276 276 276 275 274 274 274 274 273 274 273 273 272 271 271 271 272 271 271 270 270 271 272 273 273 274 274 275 275 275 275 274 273 272 271 271 271 270 270 270 269 269 269 269 269 269 268 268 267 267 266 266 266 266 266 266 266 267 267 267 267 268 268 269 269 270 270 271 271 271 271 271 271 271 271
285 285 284 282 281 280 279 278 278 277 276 276 275 275 275 274 274 274 274 274 274 274 273 272 272 272 272 272 271 271 270 271 272 272 273 273 273 274 274 274 273 272 272 271 271 270 270 270 270 269 269 269 269 269 268 268 267 267 267 266 265 265 265 265 265 266 266 266 266 267 267 268 268 269 269 270 271 271 271 271 271 271 271 270 270
284 283 282 280 279 278 277 277 277 276 275 275 275 275 274 274 274 274 274 274 274 274 274 273 273 273 273 272 272 272 272 272 272 272 272 272 273 273 273 273 272 271 271 272 271 271 270 269 269 268 268 268 268 267 266 266 266 266 266 265 265 264 265 265 265 265 266 266 266 267 267 268 268 269 270 270 271 271 271 271 271 270 270 270 270
283 281 280 279 279 278 277 276 276 275 275 275 274 273 273 273 273 273 273 273 273 274 274 274 273 273 273 272 272 272 272 272 272 272 273 273 273 273 273 273 272 272 272 272 271 270 269 269 268 268 267 267 266 265 265 264 264 264 264 264 264 264 264 264 265 265 265 266 266 266 267 268 269 269 270 270 271 271 271 271 270 270 270 270 270
283 282 281 280 279 277 276 275 275 274 274 274 273 273 272 272 272 273 273 273 274 274 275 274 274 273 273 272 272 272 272 273 273 273 274 274 274 274 274 274 274 273 272 271 270 269 268 268 268 267 267 266 265 265 264 263 263 263 262 262 263 263 264 264 265 265 265 265 266 266 267 268 269 270 270 271 271 271 270 270 270 270 270 270 270
283 283 282 280 278 276 275 275 274 274 273 273 273 272 272 272 272 273 273 273 274 275 275 275 274 274 273 273 272 272 273 274 275 275 275 275 275 275 274 274 274 272 271 270 269 268 268 268 268 267 266 265 265 264 264 264 263 262 262 262 262 263 264 264 264 264 265 265 266 267 268 269 269 270 270 271 271 270 270 270 270 270 270 270 270
284 283 283 281 278 276 275 274 274 273 273 273 272 272 272 272 272 273 273 274 274 275 275 275 275 275 274 273 273 274 275 275 276 276 276 276 275 274 274 273 272 271 270 269 268 268 267 267 267 266 266 265 264 264 264 264 263 262 262 262 262 263 263 264 264 264 265 265 266 267 268 269 269 270 270 271 270 270 270 270 270 270 270 270 270
283 283 283 282 279 277 275 274 274 273 273 272 272 272 272 272 273 273 273 274 275 275 276 276 275 275 274 274 275 275 276 276 276 276 276 275 275 274 273 271 269 268 268 268 268 267 267 267 267 266 265 265 264 264 263 263 263 262 262 262 262 262 263 263 263 264 265 266 267 268 268 269 270 270 270 270 270 270 270 270 270 270 270 270 270
282 282 282 281 279 277 276 275 274 273 273 272 272 272 272 272 273 273 273 274 275 275 275 275 275 275 275 275 276 276 277 277 276 276 275 275 274 273 271 269 268 267 267 267 267 267 267 266 267 266 265 265 265 264 263 263 263 262 262 262 262 262 263 263 263 264 265 266 267 268 268 269 270 270 270 270 270 270 269 269 269 269 270 270 270
282 282 281 280 279 277 276 275 274 273 273 272 272 272 272 272 273 273 274 274 274 275 275 275 275 275 275 275 276 277 277 276 276 275 274 274 273 272 270 269 268 267 267 267 267 267 266 266 266 266 266 265 265 264 264 264 263 262 262 262 262 263 263 263 264 265 265 266 267 268 269 269 270 270 270 270 269 269 269 269 269 269 270 269 270
281 281 281 281 279 277 275 274 273 273 272 272 272 272 272 272 273 273 274 274 274 274 274 274 274 274 274 275 276 276 276 276 275 274 273 273 271 270 269 268 268 267 267 267 267 266 266 266 266 266 265 265 265 265 265 265 263 262 262 263 263 263 263 264 264 265 265 266 267 268 269 269 270 270 270 270 269 269 269 269 269 269 269 269 269
280 280 281 280 279 276 275 273 272 272 272 272 272 272 272 272 273 273 274 274 274 274 274 274 274 273 273 274 275 275 275 274 272 271 271 270 269 268 268 268 267 267 267 267 266 266 266 266 266 266 265 265 265 266 265 264 263 263 263 263 263 263 263 264 264 264 265 266 267 268 269 269 270 270 270 269 269 269 269 269 269 269 269 269 269
278 279 280 279 278 276 274 273 272 272 272 272 272 272 272 272 273 273 273 273 273 273 273 273 273 272 273 274 274 274 273 270 268 268 268 268 267 267 267 267 267 266 266 266 266 266 266 266 266 266 265 265 266 266 265 264 264 264 264 263 263 263 263 263 264 264 265 266 267 268 269 270 270 270 270 269 269 269 269 269 269 269 269 269 269
277 278 278 278 277 276 274 272 272 272 272 272 272 272 272 272 272 273 273 273 272 272 272 272 272 272 272 273 274 273 271 268 267 267 267 266 266 266 266 267 267 267 266 266 266 266 266 266 266 266 266 266 266 265 265 264 264 264 264 264 263 263 263 263 264 264 265 266 267 268 269 270 270 270 270 269 269 268 268 268 268 269 269 269 269
277 277 277 277 276 275 273 272 272 272 272 271 272 272 272 272 272 272 272 272 271 271 271 270 270 270 271 272 272 271 269 268 267 267 266 266 266 266 266 266 266 266 266 267 267 266 266 266 265 265 265 265 265 265 265 265 264 264 264 264 264 263 263 263 264 265 265 266 267 268 269 270 270 270 269 269 268 268 268 268 268 269 269 269 269
277 277 277 276 275 274 273 272 272 272 271 271 271 271 271 271 272 271 271 270 270 270 269 268 268 269 271 272 271 270 268 267 267 267 266 266 266 266 266 266 266 266 267 267 266 266 266 265 265 265 265 265 265 265 265 265 265 264 264 264 264 264 263 264 264 265 265 266 267 268 269 270 270 270 269 268 268 268 268 268 268 268 269 269 269
277 277 276 275 274 273 273 272 271 271 271 271 271 271 271 271 271 270 269 269 269 269 268 267 266 268 270 271 270 268 267 267 266 266 266 265 266 266 266 266 266 266 266 266 266 266 266 265 265 265 265 265 265 265 265 265 265 265 265 264 264 264 264 265 265 265 265 266 267 268 269 270 270 269 269 268 268 267 268 268 268 268 268 269 269
277 277 275 274 273 272 272 271 271 271 271 270 270 270 270 270 269 269 268 268 268 267 266 266 266 268 270 270 268 266 266 266 266 266 265 265 265 265 265 266 266 266 266 266 265 265 265 265 265 265 265 265 265 265 265 265 265 265 265 265 265 265 266 266 265 265 266 267 267 268 270 271 270 269 268 268 267 267 267 268 268 268 268 268 269
276 275 274 273 272 271 271 271 270 270 270 269 269 269 269 268 268 268 267 267 266 266 265 265 266 267 268 267 266 265 265 265 265 265 265 265 265 265 265 266 266 266 265 265 265 265 265 264 264 264 264 265 265 265 265 265 265 266 266 266 266 266 267 267 266 266 266 267 268 270 271 270 269 269 268 268 267 267 267 267 268 268 268 268 268
275 274 273 272 271 270 270 270 269 269 269 268 268 268 268 268 267 267 266 266 265 264 264 265 265 266 266 265 264 264 264 264 264 265 265 265 265 265 265 265 265 265 265 265 264 264 264 264 264 264 264 265 265 265 265 265 265 266 266 266 267 267 267 267 266 267 267 268 270 271 271 270 269 268 268 267 267 267 267 267 268 268 268 268 268
273 272 271 271 270 269 269 268 268 268 268 267 267 267 267 267 266 265 265 264 264 264 264 264 264 264 264 264 264 264 264 264 264 264 265 265 265 264 265 265 265 264 264 264 264 264 264 264 264 264 264 264 264 265 265 265 265 265 266 266 267 267 267 267 267 267 268 269 270 271 270 269 269 268 268 267 267 267 267 267 267 268 268 268 268
271 270 270 269 269 268 268 267 267 267 267 267 266 266 266 265 264 264 263 263 263 263 263 263 263 263 263 263 263 263 263 264 264 264 264 264 264 264 264 264 264 264 264 264 264 264 264 263 263 264 264 264 264 264 265 265 265 265 266 266 266 267 267 268 268 268 269 270 271 270 270 269 269 268 267 267 267 267 267 267 267 267 268 268 268
269 269 268 268 267 267 267 267 267 266 266 266 265 265 264 264 263 263 262 262 262 262 263 263 262 263 263 263 262 263 263 264 264 264 264 264 264 264 264 264 264 264 264 264 264 264 263 263 263 263 264 264 264 264 264 265 265 265 265 266 266 267 267 268 268 269 270 271 270 270 269 269 268 268 267 267 267 267 267 267 267 267 268 268 268
267 267 267 267 266 266 266 266 266 265 265 265 264 264 263 263 262 262 262 262 262 262 262 262 262 263 263 263 263 263 264 264 264 264 263 263 264 264 264 264 264 264 264 264 264 264 264 263 263 264 264 264 264 264 264 265 265 265 265 266 266 266 267 268 268 269 270 271 270 269 269 269 268 268 267 267 267 267 267 267 267 267 267 267 268
Wind_Speed
42 43 45 46 45 44 45 46 46 45 42 42 42 43 43 43 44 44 44 44 45 45 46 46 47 46 45 43 42 40 38 36 33 31 29 26 25 23 21 21 20 18 17 16 16 15 15 15 15 14 13 13 14 15 16 16 16 16 16 17 18 17 19 19 14 20 34 36 33 33 29 29 34 31 34 39 37 37 40 40 39 41 42 42 43
44 46 46 45 45 46 46 45 44 43 42 42 43 44 43 44 45 44 44 45 45 45 46 45 45 46 45 44 42 41 39 38 35 33 30 29 27 24 23 22 20 19 18 17 16 16 15 15 15 14 13 14 15 15 16 16 16 17 17 16 19 19 19 22 20 18 30 39 38 40 37 32 33 34 33 39 41 40 42 44 43 41 42 44 45
47 46 44 44 45 45 43 41 41 42 42 43 44 45 44 44 44 45 45 45 45 45 45 45 45 45 45 44 43 42 40 38 36 34 32 30 28 26 24 22 21 20 18 17 17 17 16 16 16 15 13 14 15 16 16 17 16 16 17 17 19 21 19 22 24 21 26 39 43 43 42 36 34 37 38 41 43 42 44 47 46 45 45 47 48
44 42 42 43 42 41 40 40 40 41 43 44 45 45 44 43 44 45 45 45 45 45 44 44 45 45 45 44 44 43 41 39 36 34 32 30 27 26 24 23 22 20 18 18 18 18 18 17 16 14 14 14 16 17 17 17 17 16 17 18 19 22 22 21 25 27 26 34 43 44 43 42 41 40 40 44 45 45 46 48 49 51 51 50 49
42 41 42 41 39 39 39 39 40 42 44 45 45 44 43 42 43 44 44 44 45 45 44 44 44 45 45 45 44 43 41 39 36 34 32 29 27 25 24 23 22 20 19 18 18 18 18 17 16 14 14 15 17 18 18 17 17 16 17 20 20 21 23 22 25 29 29 32 41 46 45 44 45 43 38 41 46 45 46 50 51 50 50 51 50
40 40 40 39 38 39 39 40 42 45 46 46 45 44 43 43 43 43 44 44 45 45 46 46 45 45 45 44 43 42 40 38 36 34 32 29 27 25 24 23 21 20 20 19 19 19 18 17 16 15 15 17 18 19 18 16 17 17 18 20 21 21 23 25 26 29 31 34 37 42 45 42 42 44 39 38 42 43 44 51 52 45 42 47 49
38 38 38 38 38 39 41 44 46 47 47 45 43 42 42 43 43 43 43 44 45 45 46 46 46 46 45 44 42 41 39 37 36 34 32 30 27 26 25 24 22 21 21 20 19 19 18 17 17 16 16 18 19 18 18 17 17 18 19 20 21 22 23 24 25 24 27 30 31 34 40 41 40 42 42 40 41 41 38 41 48 46 40 41 45
37 38 38 38 39 41 44 46 46 45 43 42 40 40 41 42 43 43 43 43 45 46 46 46 46 45 44 43 42 40 39 37 36 34 32 30 28 28 27 25 23 22 21 20 20 19 18 17 17 17 17 18 18 17 17 17 17 18 20 20 21 22 22 22 23 23 25 29 30 30 35 38 37 39 41 37 34 35 33 30 38 45 44 45 47
37 37 37 38 41 43 44 43 41 40 38 38 39 40 41 42 42 42 43 43 44 45 45 46 45 44 43 42 41 40 39 39 38 36 34 32 30 29 27 26 25 24 22 21 19 18 18 18 17 17 16 15 15 16 16 16 18 19 19 18 19 21 21 21 22 22 23 23 24 25 27 29 30 31 34 32 30 34 37 34 37 42 43 48 52
37 36 37 40 42 42 40 39 38 38 39 39 40 40 41 41 41 42 42 43 43 44 44 44 45 45 44 42 41 41 40 40 39 37 35 33 31 30 29 27 25 24 22 20 19 18 16 16 15 14 14 14 14 16 16 17 18 19 19 18 19 20 21 22 21 21 21 21 21 23 23 25 29 32 35 37 38 40 40 38 40 43 40 38 44
36 36 39 41 40 38 37 37 38 39 39 40 40 40 41 41 42 42 42 42 43 44 44 44 45 45 44 44 43 43 42 41 40 37 34 33 32 31 30 28 26 24 22 19 18 17 14 13 14 13 14 15 16 16 16 16 17 18 19 19 20 22 22 23 23 23 23 24 25 26 24 27 34 37 38 40 40 40 42 41 40 40 36 26 24
35 37 39 38 36 36 37 37 38 39 39 40 41 41 41 41 42 42 42 43 44 44 45 45 45 44 44 45 45 45 44 43 40 37 35 33 32 31 29 27 25 23 20 18 17 15 13 12 13 14 14 14 15 16 16 16 17 17 18 20 21 22 23 25 26 27 26 25 26 26 26 30 35 38 38 39 39 41 44 44 41 38 36 30 24
34 35 36 34 34 36 37 37 38 39 40 41 41 41 41 42 43 44 44 44 44 44 45 45 45 45 45 45 45 44 44 42 39 36 34 33 31 29 28 26 24 21 19 18 16 14 13 13 14 15 16 14 14 15 16 17 17 17 19 19 20 22 24 26 28 28 30 30 29 31 32 33 35 39 40 39 39 40 39 40 42 38 36 36 35
32 32 31 32 34 35 36 37 38 38 39 39 40 41 42 43 43 44 43 43 43 44 44 44 45 45 45 45 44 43 42 41 38 35 33 30 28 27 26 23 21 19 18 17 16 15 14 14 15 16 17 15 14 15 16 17 18 18 19 20 22 23 23 25 26 28 32 33 33 36 37 35 36 39 40 38 37 37 35 37 40 37 37 41 45
30 30 30 30 32 34 35 37 36 36 37 38 40 41 42 42 42 42 43 44 45 45 45 45 45 44 43 42 40 39 39 38 35 33 31 29 26 25 23 22 20 18 17 17 16 14 13 14 16 16 16 15 14 15 15 16 17 18 20 21 22 23 24 26 27 29 32 31 31 35 36 36 37 38 39 40 40 40 40 41 44 44 45 47 48
27 28 29 31 33 36 37 37 36 36 37 38 39 40 40 41 42 42 42 42 42 42 42 43 43 41 39 38 37 35 35 35 33 31 30 28 26 24 23 22 21 19 18 17 15 13 13 15 16 16 15 15 14 14 14 15 17 19 21 22 24 25 27 27 27 28 29 29 30 35 37 38 39 39 40 42 42 43 44 46 50 49 42 36 35
26 28 30 33 36 38 38 38 36 36 37 38 39 40 41 41 41 41 41 40 39 40 39 39 39 38 38 37 36 34 33 33 32 32 31 29 28 27 25 23 21 20 19 18 16 14 14 15 15 15 15 14 13 13 13 15 17 19 21 24 25 26 27 26 24 23 26 29 33 36 36 36 36 38 40 41 41 43 41 39 42 40 30 21 18
26 29 32 35 36 38 38 39 38 38 39 40 40 40 39 39 39 40 41 40 38 38 38 36 36 37 38 38 37 36 35 35 34 34 32 29 28 28 26 23 21 19 18 17 15 14 14 14 15 14 14 13 13 14 14 15 17 19 22 23 24 24 24 23 21 23 29 32 31 31 32 34 36 38 41 40 38 38 35 34 38 36 28 21 18
19 22 26 29 31 34 36 37 38 38 40 40 39 38 37 36 36 37 38 37 36 36 36 35 35 36 37 38 37 37 37 36 34 33 31 28 27 28 26 24 22 20 18 16 13 12 12 13 14 14 14 13 13 14 14 15 17 20 21 22 23 24 25 25 25 29 32 29 27 31 37 40 39 38 39 38 35 34 33 34 37 35 29 27 25
15 16 17 19 24 28 31 34 36 37 37 37 35 35 35 34 35 36 35 34 33 33 34 34 34 34 35 36 36 36 37 36 33 31 30 28 26 27 27 25 23 22 18 16 14 13 13 12 11 12 13 13 13 13 14 15 17 20 20 21 24 26 28 28 28 28 29 29 33 38 42 41 39 36 36 36 34 32 32 32 34 33 30 30 29
14 14 14 16 20 24 27 30 32 32 32 32 31 32 34 34 35 36 34 32 31 31 31 32 32 32 33 34 35 35 37 37 33 29 28 28 26 27 28 27 25 23 19 16 15 14 12 11 10 10 11 12 12 13 14 16 17 19 21 22 24 26 27 27 27 27 30 34 38 39 38 38 38 36 35 36 35 32 31 30 29 31 31 31 31
13 12 14 16 19 21 23 25 25 26 27 29 30 30 30 32 33 34 32 31 31 30 30 30 30 30 30 32 33 34 36 37 34 29 27 28 27 26 28 27 24 22 20 18 17 15 11 9 9 10 10 11 12 14 16 17 17 18 20 21 22 24 25 26 28 30 32 34 34 34 35 36 36 36 36 36 35 31 29 29 29 32 34 35 35
13 11 13 14 16 18 20 20 21 22 24 26 28 28 28 29 30 31 32 30 29 28 28 29 29 29 29 29 30 32 33 35 34 30 27 28 27 25 25 25 23 21 19 19 19 16 12 10 9 9 10 11 13 15 16 16 17 17 18 20 21 22 24 26 29 30 31 31 30 32 33 32 34 36 36 34 33 32 32 34 36 36 37 38 40
14 11 11 12 13 16 18 19 20 21 22 25 26 26 27 29 29 30 31 30 29 28 27 29 30 30 30 29 29 30 30 31 32 31 27 26 26 25 23 22 21 20 18 18 17 15 12 11 9 8 9 11 13 14 15 16 16 17 17 18 20 21 23 26 28 29 29 30 29 30 31 32 33 34 35 35 35 36 37 39 39 39 39 42 45
14 12 12 12 13 15 18 19 21 22 24 26 27 26 28 28 28 28 29 29 28 27 26 28 32 33 32 31 30 30 31 30 30 29 27 24 24 24 23 21 20 19 18 17 16 13 12 11 9 8 9 10 12 15 16 16 16 16 17 17 19 20 22 25 28 28 28 28 29 30 32 33 33 33 36 38 39 39 40 41 41 40 41 44 46
16 15 15 15 16 17 19 20 22 23 25 27 28 28 29 30 28 28 28 27 27 26 26 29 32 34 34 34 34 34 33 32 30 29 27 25 24 24 22 20 19 17 15 15 14 12 10 9 9 9 9 12 13 15 16 15 14 15 16 17 18 19 22 24 26 27 26 27 29 31 32 34 35 36 37 38 38 39 39 40 41 40 40 41 43
18 18 18 18 18 20 22 23 24 25 26 28 28 27 29 30 29 28 28 28 26 25 27 30 35 37 35 33 32 34 35 33 30 28 28 26 25 24 22 21 19 16 15 14 13 11 11 10 9 10 11 12 13 13 13 13 14 15 16 17 18 19 21 22 24 25 27 28 30 32 34 35 36 36 37 36 37 38 38 38 39 38 39 39 36
21 21 21 20 21 23 24 26 26 27 28 30 30 30 31 32 32 33 35 35 32 29 29 31 36 39 36 30 30 32 33 32 31 32 33 32 29 27 24 23 21 19 17 16 13 11 11 9 9 10 11 12 11 10 10 12 14 15 17 18 19 20 21 23 24 25 27 28 30 32 34 35 34 35 35 35 35 37 38 38 37 37 37 34 28
24 23 22 22 23 24 25 28 29 29 29 31 32 34 35 36 36 35 37 39 38 35 34 34 36 38 36 34 35 36 35 34 36 38 36 34 32 30 28 26 24 20 18 15 13 12 11 9 9 10 9 9 9 10 11 13 15 16 17 18 19 20 22 23 25 27 27 28 29 32 33 34 34 34 33 33 34 36 37 36 35 35 35 31 25
23 23 22 22 23 24 25 27 28 28 27 28 28 29 29 32 33 30 30 33 33 31 31 33 36 38 37 36 39 41 42 41 40 36 33 30 30 29 27 25 22 19 17 15 14 13 11 9 9 9 7 7 9 10 12 14 16 17 18 19 20 21 22 23 24 27 28 28 29 31 32 33 33 33 32 32 34 35 35 35 35 33 31 27 25
22 22 22 24 26 26 26 25 25 25 24 24 23 22 21 23 25 24 24 25 26 24 23 26 31 35 36 35 34 34 35 36 36 33 31 30 27 25 24 22 20 19 19 18 16 13 11 10 9 7 6 7 9 11 12 14 15 17 18 19 20 20 21 23 25 26 28 29 29 30 30 31 31 32 32 32 34 36 35 34 33 31 29 28 25
23 24 25 27 28 27 25 24 23 23 23 22 22 21 18 17 17 19 20 21 22 22 21 22 27 31 32 34 33 29 29 32 33 33 31 29 27 25 23 22 21 21 19 18 16 13 12 10 9 6 6 8 9 11 12 14 15 16 17 19 20 21 22 24 26 27 28 30 30 29 30 30 31 33 33 33 34 35 34 33 32 30 29 28 26
28 28 28 27 26 26 25 24 24 25 25 24 24 23 21 18 15 16 18 20 22 22 21 22 26 28 28 30 32 31 32 34 33 32 30 29 27 26 24 22 22 21 19 17 16 14 12 10 8 6 6 7 9 11 12 14 15 16 17 18 20 22 24 26 27 28 29 29 29 29 30 31 32 33 33 32 33 33 33 32 32 30 28 25 25
33 33 32 28 26 26 27 27 27 27 27 27 26 25 24 23 20 18 18 18 19 21 21 23 25 27 27 28 29 30 33 34 32 30 30 29 27 26 25 23 21 18 17 16 15 13 12 9 7 6 6 7 8 10 12 13 15 16 18 19 21 23 25 26 26 28 29 29 29 29 30 32 32 32 32 33 33 32 32 32 31 28 26 24 23
34 34 34 31 28 27 28 28 28 28 27 27 27 26 25 24 23 22 21 19 18 19 21 24 26 27 28 29 29 30 32 31 30 29 29 28 27 27 27 25 22 19 17 16 14 13 11 8 7 5 5 6 7 9 11 13 15 16 18 20 22 24 25 27 27 28 29 28 29 30 31 32 33 32 32 32 33 32 31 31 30 28 27 26 25
32 31 31 30 30 28 27 27 28 27 27 27 26 25 24 24 23 23 23 21 20 20 21 24 27 28 28 29 30 30 30 30 29 29 28 27 28 29 29 26 23 20 18 16 14 12 9 7 6 3 3 5 7 9 11 13 15 16 18 20 22 24 26 27 28 28 29 29 30 32 33 33 33 33 32 32 33 33 32 32 32 30 29 29 28
30 29 28 29 29 28 27 27 28 28 26 25 24 24 24 24 24 24 23 22 22 22 23 26 28 29 28 29 30 29 29 28 27 26 25 25 26 28 28 26 23 20 18 16 14 11 9 7 5 2 3 5 7 8 11 13 15 16 18 19 21 24 25 26 27 28 30 31 31 32 34 34 33 33 33 33 33 34 33 33 33 32 31 31 29
30 30 30 29 29 28 27 25 26 26 25 25 25 25 24 24 25 24 23 23 24 24 24 27 29 28 29 31 32 31 30 29 26 25 25 25 25 26 25 22 20 19 18 15 13 11 9 6 4 3 3 5 7 8 11 13 15 16 18 20 21 24 25 26 27 29 30 31 31 33 34 34 34 34 36 35 34 34 34 34 33 31 31 30 27
30 31 33 32 28 27 26 25 24 25 25 24 25 25 25 25 25 25 24 24 25 25 25 26 27 28 31 34 35 34 32 29 28 28 27 27 26 25 23 21 20 18 17 15 13 11 8 6 4 3 4 5 6 8 10 13 15 16 18 20 21 23 25 26 28 30 30 30 32 33 33 33 34 35 37 37 35 35 34 34 33 31 29 28 27
28 29 30 30 28 27 26 25 25 25 25 25 25 25 25 26 26 26 25 25 25 25 26 26 26 29 34 37 38 37 33 29 28 29 29 28 27 25 23 22 21 19 17 15 12 10 7 6 4 4 4 4 6 8 10 12 14 15 17 19 21 23 25 27 29 30 31 31 33 33 33 34 34 35 37 38 37 37 36 35 34 33 31 30 30
28 27 27 28 27 26 24 25 26 26 26 26 26 26 26 27 27 27 26 26 26 26 26 26 27 31 36 38 39 39 35 31 30 31 30 28 27 26 24 22 21 19 16 14 12 9 7 5 4 3 3 4 6 8 10 11 13 15 16 19 21 23 25 27 29 30 32 33 33 33 34 34 34 34 36 39 39 39 38 36 35 35 33 31 31
27 26 25 25 25 24 23 23 25 25 25 25 25 26 26 26 27 27 26 26 27 26 25 25 27 31 34 34 35 37 36 33 32 32 30 28 27 25 23 21 19 17 16 13 11 9 7 5 3 3 4 5 7 9 9 11 13 14 16 19 21 23 26 28 30 31 32 32 33 35 36 35 34 35 38 40 40 39 38 37 35 34 33 31 31
28 26 25 23 24 25 25 24 24 25 25 25 26 26 27 27 26 26 26 26 26 26 25 25 27 30 31 30 32 35 35 33 32 31 29 28 27 25 23 21 19 16 15 13 10 8 7 4 3 3 4 6 7 8 9 11 13 14 17 19 21 23 27 28 30 32 32 32 35 40 38 34 35 38 40 41 40 39 38 36 35 34 33 32 31
27 26 24 23 24 24 24 24 24 24 25 26 25 26 27 27 25 25 25 26 26 26 26 28 30 31 31 30 31 33 34 32 32 31 29 28 27 25 23 21 19 16 14 12 10 8 6 4 4 4 5 6 6 7 9 10 12 14 16 19 21 23 26 28 31 33 33 35 41 43 38 33 36 39 40 40 41 39 37 36 35 34 33 32 30
25 23 22 21 21 21 21 22 22 22 23 23 23 23 25 25 25 26 27 27 27 27 27 28 31 32 30 30 31 33 33 32 31 31 30 29 27 25 23 21 18 16 14 11 9 8 6 5 5 5 5 5 6 7 8 9 11 13 15 18 20 23 25 28 31 33 35 38 42 40 34 33 37 39 39 40 41 38 36 37 36 35 34 32 29
23 22 21 20 20 20 20 21 22 23 23 23 23 23 24 25 26 27 28 28 28 27 27 28 30 30 28 28 30 32 32 31 31 31 30 29 27 25 22 20 17 15 13 11 9 8 7 6 6 6 6 6 6 7 8 8 10 11 13 16 19 21 23 28 31 34 37 40 39 34 32 35 38 38 39 41 41 38 37 38 37 35 34 33 31
21 20 20 20 20 20 20 21 22 23 23 23 23 24 24 25 25 27 27 27 27 27 27 28 29 28 27 28 30 31 31 31 31 30 30 28 26 24 21 19 16 14 13 11 9 8 7 6 6 6 6 7 8 9 9 9 11 12 12 14 16 19 23 27 30 34 38 38 34 31 33 36 36 37 39 40 40 38 38 37 37 36 35 34 33
19 19 19 20 20 20 20 21 22 21 21 21 22 23 23 24 24 25 26 26 27 27 27 27 27 27 27 29 30 31 31 31 30 30 29 27 25 23 20 18 16 14 12 10 9 8 6 6 5 6 6 8 9 10 10 11 12 12 13 14 16 19 22 26 29 34 37 35 31 31 35 35 35 37 39 40 39 39 38 36 36 37 36 34 33
18 19 20 20 20 20 21 21 21 21 21 22 22 22 22 23 23 24 25 26 26 27 28 28 27 28 29 30 30 31 31 30 30 29 28 26 24 21 19 17 15 13 12 10 8 6 5 4 5 6 6 8 9 10 11 12 12 13 14 15 16 19 22 25 29 34 35 33 31 32 34 34 34 36 38 39 39 39 38 37 37 37 36 34 33
18 19 20 20 19 20 21 21 21 21 22 22 22 22 22 23 23 24 26 27 28 29 30 30 30 30 31 32 32 31 31 30 29 28 26 24 22 20 18 16 15 13 11 9 7 5 4 4 5 6 7 8 9 10 11 12 13 14 15 16 17 21 23 26 30 33 32 31 32 33 34 33 34 36 37 38 39 39 38 38 38 36 35 34 33
20 20 20 20 20 20 21 21 20 21 21 22 22 22 23 23 24 27 30 32 33 32 31 32 32 32 32 33 33 32 31 29 28 26 24 22 21 19 17 16 14 12 10 8 6 4 4 4 5 6 8 9 10 11 11 12 13 14 15 16 19 22 24 26 29 31 31 30 32 33 32 32 33 35 36 38 39 39 38 38 37 36 34 33 33
Wind_Direction
215 217 217 217 217 216 217 217 216 216 215 215 216 217 216 213 211 210 210 210 210 209 209 209 208 206 205 205 204 203 202 200 200 202 203 206 207 207 207 209 212 212 212 214 218 223 230 236 242 247 251 255 260 265 268 269 270 268 269 269 267 265 264 262 263 281 286 285 285 285 287 292 294 296 300 303 305 307 306 304 303 302 300 298 296
216 218 217 217 217 217 217 216 214 213 213 214 216 217 216 214 211 208 208 209 209 209 209 207 206 205 203 203 203 203 202 200 201 202 204 206 205 205 206 208 210 210 209 212 218 224 231 236 242 246 250 255 260 262 265 267 267 267 267 266 265 264 261 262 264 277 287 289 290 292 294 295 297 300 304 305 306 307 306 304 303 300 299 298 296
218 218 217 217 218 217 217 216 213 212 211 213 215 216 216 214 211 208 207 207 207 208 209 207 205 203 202 203 202 202 202 201 202 203 205 206 204 203 205 208 210 210 210 213 218 223 229 234 240 244 248 254 259 261 264 265 264 264 265 263 263 264 259 261 266 270 281 289 292 295 298 299 299 303 306 306 305 306 305 304 303 300 298 298 295
218 217 217 218 218 216 216 214 212 211 211 213 215 215 214 213 211 209 206 204 205 205 206 206 205 203 202 202 202 201 201 201 202 204 205 206 205 204 206 208 210 211 213 216 218 222 228 232 238 242 247 253 258 261 261 262 262 260 262 262 259 262 263 259 263 267 275 285 290 293 297 300 301 303 306 306 305 305 304 303 302 300 299 297 293
218 217 217 217 216 215 214 212 211 212 212 213 214 213 212 211 210 209 205 203 202 202 202 203 203 202 202 202 201 201 201 201 202 203 205 205 204 206 207 208 210 211 214 217 219 224 228 232 237 240 245 250 253 258 259 259 261 258 257 260 258 259 264 262 264 267 268 275 285 292 296 298 301 303 306 307 306 305 305 302 299 298 298 297 292
217 217 216 215 214 213 212 210 211 213 214 214 212 211 210 209 208 207 205 202 200 199 200 201 202 203 203 203 202 202 201 202 203 203 203 202 202 205 207 208 210 211 213 216 219 225 228 232 237 239 244 249 249 254 258 257 258 257 255 256 258 260 263 265 265 265 265 268 278 289 293 295 300 302 303 305 303 301 303 303 299 295 296 296 294
217 216 215 214 213 212 211 211 212 213 213 213 211 209 207 207 207 205 204 202 198 197 198 199 201 203 203 203 203 203 202 202 203 204 203 202 201 203 206 206 208 210 213 217 219 224 229 231 236 241 244 248 250 252 255 254 253 254 254 254 259 262 260 261 261 258 261 269 273 280 288 292 295 296 297 300 298 294 295 299 299 298 299 296 293
216 215 214 212 212 212 212 213 214 213 212 210 208 206 205 205 205 204 202 201 198 198 197 198 200 201 203 204 203 203 203 202 203 203 203 203 202 203 204 204 206 209 211 217 220 223 228 232 237 243 245 247 251 252 252 253 251 251 253 255 258 259 254 253 257 257 258 265 270 275 282 287 289 291 293 296 295 293 293 293 294 297 300 299 295
215 215 212 212 214 214 213 213 212 210 209 206 205 204 203 203 202 201 201 200 199 198 198 198 198 199 201 203 203 203 203 203 204 204 203 202 201 202 203 204 205 208 210 214 220 224 229 235 240 244 246 246 248 249 247 248 248 250 253 257 257 256 255 254 255 257 258 260 267 273 277 279 283 288 292 294 294 296 298 296 291 292 297 297 296
215 213 212 214 215 213 212 210 207 206 205 204 203 202 201 200 199 199 199 198 198 197 197 198 198 199 200 200 202 202 203 205 206 206 205 203 202 201 201 202 203 206 208 211 218 226 232 239 243 242 242 241 240 242 245 247 250 255 257 260 262 262 263 265 262 261 265 267 271 277 279 280 283 287 291 294 296 296 296 295 292 294 296 294 293
213 212 213 216 214 210 208 205 203 202 201 201 200 199 198 197 196 197 196 196 197 196 196 197 198 199 200 200 201 202 203 206 206 205 205 204 203 201 199 200 201 203 208 211 217 227 232 237 241 238 234 236 238 242 248 252 255 259 260 261 265 266 266 269 271 270 270 271 274 276 277 280 284 287 289 291 294 294 292 291 290 291 292 290 291
212 213 215 214 210 206 204 201 199 199 198 198 198 196 195 194 194 195 195 195 196 195 196 197 198 199 200 201 202 202 204 206 204 202 202 202 202 201 197 197 199 200 207 212 216 222 225 227 231 232 231 235 241 246 251 255 256 258 263 265 265 266 268 270 273 274 273 273 275 275 276 280 284 286 287 289 290 290 288 287 286 286 286 284 282
214 214 214 211 206 204 201 198 196 196 196 196 195 193 192 192 193 194 194 194 195 194 196 197 198 199 200 201 202 203 203 204 202 199 199 199 199 198 196 197 198 200 204 209 213 214 214 217 219 226 235 239 242 247 250 256 261 264 266 268 269 270 271 270 271 273 276 278 279 278 278 280 282 283 285 286 287 287 286 286 284 283 281 279 277
214 214 212 208 204 201 199 196 195 195 194 192 191 190 191 192 193 194 193 193 193 194 196 197 198 200 201 202 202 202 202 202 199 196 194 194 194 195 196 196 196 200 203 205 209 209 208 215 221 230 240 242 243 249 254 261 267 269 269 270 272 273 273 273 273 274 276 276 275 276 278 278 278 281 285 286 286 285 285 284 284 283 282 282 282
212 212 208 205 202 199 197 196 194 192 190 189 189 190 191 192 192 192 193 193 194 195 196 197 199 200 201 201 200 200 201 199 195 193 191 187 187 191 195 195 194 199 203 203 206 206 209 219 228 234 239 242 247 252 259 265 268 269 271 271 273 276 275 274 275 275 275 273 272 276 280 282 282 284 286 288 287 285 286 286 287 290 290 290 288
210 208 204 202 200 198 196 194 192 189 188 187 189 190 191 192 193 192 192 194 195 196 196 197 198 198 199 199 198 198 201 197 190 190 188 183 183 188 193 194 195 198 200 201 203 208 218 225 229 234 238 243 250 252 256 265 269 271 274 275 277 277 276 277 279 278 277 278 278 280 283 284 286 287 288 290 290 292 295 295 293 293 292 289 286
209 205 204 203 200 198 196 192 189 187 187 187 190 192 192 193 193 191 191 192 194 195 196 196 197 197 196 197 197 198 198 193 189 190 189 183 183 187 190 192 195 197 200 205 212 217 224 228 229 234 241 245 250 254 259 267 271 274 277 278 278 277 278 282 283 279 279 283 284 283 283 284 288 291 292 292 292 294 296 294 290 291 289 283 281
213 207 206 205 201 198 195 192 189 187 187 190 192 193 193 193 192 191 191 192 193 194 194 194 195 196 197 196 197 199 196 191 190 192 190 184 184 187 188 188 191 196 201 208 217 223 227 232 233 235 242 247 251 259 265 268 273 277 278 280 281 281 284 289 286 285 289 290 286 282 283 286 291 294 293 291 291 291 288 283 283 286 285 280 280
235 224 217 210 203 198 195 192 190 189 190 193 193 192 192 191 191 192 192 193 193 193 192 192 192 194 197 197 198 200 196 190 190 192 188 183 185 187 186 185 188 194 200 205 213 223 230 234 236 237 243 251 256 263 267 269 275 279 282 286 287 286 288 292 291 291 293 291 287 288 291 293 294 295 294 293 292 290 284 279 278 278 277 276 278
271 257 241 223 208 202 198 195 194 194 194 194 193 191 190 189 188 190 191 192 192 191 191 191 191 192 195 197 197 199 196 190 188 192 188 183 186 187 186 187 189 191 194 199 207 220 228 231 235 241 247 255 260 265 270 272 278 285 289 290 288 288 292 294 294 294 294 293 294 295 297 298 297 297 296 294 293 290 286 282 277 274 275 279 283
279 262 248 232 216 208 204 201 199 198 196 193 191 190 189 189 188 187 187 188 188 188 189 190 190 191 194 195 195 197 197 192 189 189 187 184 186 189 189 190 191 190 189 195 206 214 220 224 231 239 248 258 264 268 274 279 284 289 289 288 287 291 296 298 297 298 297 298 299 298 299 300 300 299 298 296 295 293 289 286 281 277 278 281 285
285 259 242 232 221 213 210 208 204 202 198 192 188 188 188 188 187 185 184 185 185 186 187 187 186 188 191 193 194 196 197 196 191 187 186 185 185 189 193 192 191 187 185 193 205 209 210 217 227 239 250 261 268 273 280 286 290 289 287 288 292 297 301 301 300 301 301 300 299 298 298 299 299 299 300 299 299 297 293 291 288 285 282 281 281
297 268 244 230 222 216 213 211 208 204 200 194 188 186 185 185 185 184 183 183 182 183 185 185 184 185 187 190 193 195 195 195 192 187 186 187 185 187 192 190 187 185 186 194 203 205 207 215 225 241 256 267 275 283 289 292 291 289 289 294 300 303 303 302 302 303 302 300 298 296 296 298 299 300 301 302 302 301 297 294 292 289 286 284 282
299 277 251 231 222 216 212 211 209 205 201 195 189 186 185 183 184 185 184 182 181 183 185 186 184 182 182 185 189 192 191 192 191 188 186 187 186 185 187 184 181 184 191 197 201 203 209 220 230 247 263 275 286 290 289 287 288 291 295 302 305 305 305 305 306 306 303 300 298 297 297 300 301 301 303 303 303 302 298 296 294 291 290 289 287
287 271 252 234 224 217 211 209 207 205 202 196 192 189 187 184 183 185 185 184 185 184 186 188 186 182 180 180 185 189 188 187 188 188 186 186 187 186 186 184 182 185 193 199 202 204 209 219 231 247 265 279 287 285 283 285 291 297 301 305 306 307 309 310 309 305 301 299 299 298 299 301 302 301 303 303 303 302 301 299 298 296 295 294 291
271 261 247 235 226 217 211 207 205 205 203 199 197 195 191 187 186 186 187 189 189 189 188 188 187 184 183 182 183 185 185 183 184 186 184 184 184 185 186 185 183 184 192 197 198 200 203 210 220 236 259 275 278 279 284 291 298 300 304 308 311 313 314 311 306 301 297 297 299 298 299 302 303 303 304 304 302 302 302 301 300 299 299 297 294
256 248 239 232 224 214 209 205 202 202 201 199 199 199 197 193 189 188 189 191 192 193 191 188 187 187 186 183 181 181 181 182 181 182 182 181 182 184 185 183 180 182 189 192 191 193 197 202 218 241 261 269 270 275 286 294 302 308 313 318 319 317 314 307 300 296 295 295 297 298 299 302 304 304 305 304 302 302 303 302 299 299 301 299 294
247 241 234 227 219 214 210 205 201 200 200 199 200 200 198 196 195 196 196 194 192 193 192 190 191 190 185 180 176 176 179 182 182 181 181 181 181 181 180 179 179 183 190 191 190 195 201 211 231 250 259 262 266 279 294 304 313 318 319 322 322 319 315 308 300 297 297 298 299 300 302 304 304 304 304 302 300 302 304 303 300 298 301 300 295
247 239 232 224 218 214 210 207 205 203 201 202 204 205 204 201 202 204 205 202 199 197 196 195 196 192 186 182 177 173 177 185 187 184 182 181 181 179 178 179 184 188 189 190 191 195 203 218 235 243 250 262 276 294 309 316 320 321 322 324 322 318 315 309 304 302 303 303 301 301 303 303 302 302 303 301 300 303 304 303 301 300 300 298 293
247 239 232 224 219 215 210 210 210 207 205 204 206 209 211 209 208 210 210 209 208 207 204 202 199 192 188 188 184 182 185 188 185 181 178 178 179 179 178 179 183 183 182 184 190 197 205 217 229 236 249 272 289 300 310 316 318 319 323 323 319 314 311 307 305 305 305 304 302 300 301 301 300 302 303 302 302 304 305 304 302 300 299 296 293
244 240 233 226 221 216 211 211 210 209 209 209 205 205 209 212 214 216 215 211 210 210 210 207 199 193 190 188 186 187 189 183 175 172 173 174 176 175 174 175 177 176 179 184 189 195 204 213 220 231 252 274 287 296 304 310 312 313 316 316 314 312 309 306 308 309 306 304 302 300 299 299 300 302 303 303 304 306 307 306 303 300 298 295 293
242 240 236 230 224 218 211 208 207 206 206 207 204 202 200 201 208 215 214 209 206 204 202 197 192 191 191 187 183 182 180 173 168 168 171 173 173 171 171 174 173 171 178 188 191 193 198 206 214 229 253 272 285 297 304 307 310 311 311 309 309 310 310 311 312 310 306 303 302 301 301 301 302 302 303 304 306 307 307 307 305 302 299 296 292
247 244 240 232 223 216 209 205 204 203 202 201 199 197 196 194 194 197 199 200 201 201 198 190 185 183 185 184 182 178 173 168 167 169 171 172 171 167 168 170 169 170 178 185 185 187 194 203 216 233 254 276 292 302 307 309 311 313 309 305 306 309 313 314 313 309 305 304 302 301 303 304 304 304 304 306 308 309 307 307 305 303 301 297 294
252 249 245 235 222 213 208 205 203 203 202 200 198 196 196 195 189 182 180 185 190 194 193 186 181 176 175 177 178 174 168 166 167 169 171 170 168 164 163 162 161 170 184 185 180 184 193 201 216 234 257 281 294 302 308 311 313 313 311 310 311 313 314 315 313 309 307 306 304 303 305 306 306 305 306 309 311 310 307 306 306 304 302 300 297
255 252 248 240 227 218 212 208 204 202 201 199 198 196 195 193 188 183 181 180 180 181 179 177 175 173 172 172 171 168 166 167 168 169 169 168 166 162 159 157 158 168 179 183 184 189 195 200 210 228 261 287 299 304 308 312 316 316 315 314 314 315 316 315 313 311 309 307 306 306 307 307 307 307 308 309 312 311 309 307 305 303 302 301 299
255 253 249 242 231 223 217 211 206 204 201 199 198 195 192 189 187 184 184 183 178 172 168 166 166 166 165 166 165 165 166 167 167 168 168 167 166 165 165 165 168 171 173 178 185 191 194 201 207 226 272 294 306 310 311 317 321 319 317 316 315 315 316 315 313 312 310 307 307 307 308 309 309 310 310 311 312 311 309 306 305 304 302 301 299
258 252 247 240 231 224 218 213 208 205 201 196 193 190 188 188 186 182 182 181 176 169 163 160 158 158 161 163 165 165 166 165 164 166 167 166 170 177 180 178 175 174 175 179 185 187 189 197 207 228 281 296 308 316 321 325 323 317 317 319 319 318 318 315 312 311 309 307 307 308 309 310 310 311 313 314 313 312 310 307 306 304 303 301 299
262 255 249 241 230 220 214 210 204 199 195 192 189 187 185 185 184 182 180 178 173 168 164 163 161 160 160 163 164 163 162 161 161 163 164 167 176 186 189 184 178 178 180 180 182 184 185 193 209 237 278 299 315 326 328 325 318 315 319 324 325 324 321 316 313 312 309 306 307 309 310 310 311 313 316 316 313 312 310 309 308 307 305 304 301
260 255 251 244 232 218 210 203 196 192 190 189 187 186 183 182 181 181 178 175 172 169 167 167 166 163 161 161 162 161 160 160 161 162 164 172 181 186 185 181 180 181 180 179 181 182 182 187 210 245 277 303 322 329 324 317 315 321 327 328 327 325 323 318 314 312 309 307 308 310 311 310 310 314 318 317 314 312 310 309 309 308 306 305 303
258 255 250 241 229 216 206 198 192 190 190 188 186 185 183 182 181 180 176 173 172 171 170 169 168 165 163 163 163 163 162 161 162 164 168 175 181 183 182 180 180 178 178 179 180 181 182 190 212 248 283 310 321 320 314 313 319 329 333 332 327 323 320 317 313 310 309 308 309 310 311 311 312 316 318 318 315 313 311 309 309 308 306 304 304
253 251 247 238 224 211 201 196 194 193 190 188 187 185 184 183 181 178 175 173 171 170 170 168 166 165 165 165 166 166 164 162 163 167 171 176 179 179 179 179 179 177 176 178 179 180 187 199 219 255 293 307 308 308 311 319 329 334 334 332 329 323 319 317 314 311 310 309 310 311 313 313 315 317 318 318 316 314 312 311 310 309 308 306 305
249 245 242 232 217 205 198 195 195 193 188 187 187 186 184 181 179 176 174 172 169 168 164 161 161 164 164 164 165 166 165 164 166 169 173 177 179 178 177 176 176 176 176 177 178 182 192 206 226 263 293 298 300 307 318 329 335 335 334 334 331 325 320 317 315 313 312 310 311 314 315 315 316 319 319 318 317 315 314 313 312 310 310 309 308
246 241 236 225 210 203 199 194 191 187 186 186 186 183 180 178 176 173 170 167 166 165 160 156 158 163 163 161 162 165 166 167 169 172 175 178 178 177 175 174 174 173 175 177 179 185 196 211 234 266 288 295 300 313 325 334 337 337 336 335 332 326 321 318 315 314 312 311 312 315 316 317 320 322 321 320 318 317 314 314 314 313 312 311 311
244 236 228 218 207 201 197 191 187 186 185 182 180 177 175 173 170 167 165 164 163 163 161 159 160 162 162 160 163 166 168 169 172 175 177 177 176 175 174 173 172 172 175 178 182 191 204 221 244 266 286 297 304 315 326 334 338 337 336 334 331 326 322 319 316 314 312 312 313 315 317 320 323 323 322 321 319 318 316 316 316 315 314 314 314
245 230 216 205 198 193 189 185 182 179 175 171 168 168 168 167 165 163 163 163 163 163 163 163 163 164 163 163 166 169 170 171 173 176 177 176 175 174 172 172 172 173 177 181 189 199 213 233 251 271 293 302 306 315 324 331 336 338 338 336 331 327 326 324 319 315 313 314 314 315 319 323 324 323 322 321 320 318 317 318 317 317 317 317 316
240 220 202 191 185 180 177 175 172 169 166 164 163 163 164 164 164 163 163 164 163 162 162 163 165 166 165 164 166 169 171 172 174 176 176 176 175 173 171 170 172 174 179 186 196 206 221 239 256 280 302 310 314 319 323 327 333 337 339 338 335 333 333 329 323 319 317 317 316 318 322 324 323 322 322 321 321 319 319 319 319 318 318 319 318
221 201 187 180 173 168 167 166 164 163 164 163 162 162 162 161 161 161 161 162 161 160 160 162 165 165 164 163 165 168 170 172 174 174 174 174 173 171 170 170 172 176 183 192 200 210 224 242 259 283 304 316 320 320 321 327 332 334 336 340 341 340 337 333 328 324 322 320 320 323 325 324 322 323 323 322 322 322 321 321 321 321 320 320 320
192 178 170 166 161 157 157 158 157 157 159 158 158 158 157 156 155 156 157 157 156 157 158 159 160 159 159 161 164 167 169 171 172 172 172 172 170 168 168 170 172 177 185 192 201 211 225 244 267 286 302 314 318 318 320 325 328 330 335 342 347 346 343 339 334 330 325 322 323 327 328 324 322 323 325 324 323 323 323 323 322 323 323 323 323
162 157 153 152 152 151 151 152 153 154 153 153 152 152 151 151 151 152 152 153 154 156 156 155 155 156 157 159 162 165 166 168 169 170 169 169 167 166 167 169 172 177 183 188 195 208 223 246 273 291 304 313 316 318 319 320 324 330 336 341 348 351 350 346 340 333 327 326 329 331 328 325 325 326 326 326 326 326 325 325 325 325 325 325 326
138 139 140 140 141 143 145 146 147 148 149 150 149 148 148 148 149 149 150 151 152 153 152 152 154 157 158 159 161 163 165 167 168 168 168 167 166 166 168 170 172 176 180 183 191 206 226 256 284 300 310 316 317 316 316 318 323 329 334 341 349 352 351 347 341 334 331 332 335 332 328 326 327 328 329 329 329 329 328 328 328 327 327 328 328
118 122 126 129 131 134 137 140 141 144 146 147 146 146 146 147 148 149 151 151 150 150 152 154 156 159 160 160 161 162 165 167 168 168 167 166 166 168 169 171 173 175 178 184 195 213 240 270 293 306 313 319 320 317 314 317 322 327 336 347 352 350 348 345 340 335 334 337 336 332 328 327 329 331 332 333 332 331 330 330 330 330 330 330 330